[[{"header":{"parameterUnit":"m.s-1","parameterCategory":1,"la1":30.2991,"la2":30.254,"lo1":-89.0895,"lo2":-89.0444,"dy":0.0017,"dx":0.0017,"nx":28,"ny":28,"refTime":"2025-05-18T21:00:00:Z","depth":0,"parameterNumber":2,"parameterNumberName":"U-component_of_WINDS"},"data":[0,0,0,0,0,0,0,0,0,0,0,0,0,0,0,0,0,0,0,0,0,0,0,0,0,0,0,0,0,0,0,0,0,0,0,0,0,0,0,0,0,0,0,0,0,0,0,0,0,0,0,0,0,0,0,0,0,0,-0.6795,-0.6795,0,-0.6801,-0.6801,-0.6801,-0.6799,-0.6799,-0.6799,-0.6799,-0.6804,-0.6805,-0.6805,0,0,0,0,0,0,0,0,0,0,0,0,0,-0.6783,-0.6784,-0.6795,-0.6795,-0.6795,-0.6801,-0.6801,-0.6801,-0.6799,-0.6799,-0.6799,-0.6799,-0.6804,-0.6805,-0.6805,0,0,0,0,0,0,0,0,0,0,0,0,0,-0.6789,-0.6784,-0.6795,-0.6795,-0.6795,-0.6801,-0.6801,-0.6801,-0.6799,-0.6799,-0.6799,-0.6798,-0.6804,-0.6805,-0.6805,-0.6812,0,0,-0.6806,-0.6807,0,0,0,0,0,0,0,0,-0.6789,-0.6789,-0.6795,-0.6795,-0.6795,-0.6799,-0.6799,-0.6805,-0.6799,-0.6797,-0.6799,-0.6798,-0.6803,-0.6803,-0.6805,-0.6812,-0.6812,-0.6806,-0.6807,-0.6807,-0.6807,0,0,0,0,0,0,0,-0.6788,-0.6789,-0.6798,-0.6795,-0.6795,-0.6795,-0.6796,-0.68,-0.6801,-0.6798,-0.6797,-0.6798,-0.6803,-0.6805,-0.6805,-0.6813,-0.6806,-0.6807,-0.6807,-0.6807,-0.6827,-0.6828,0,0,0,0,0,0,-0.6788,-0.6789,-0.6797,-0.6798,-0.6791,-0.6795,-0.6796,-0.6798,-0.6801,-0.6801,-0.6798,-0.6798,-0.6804,-0.6805,-0.6805,-0.6814,-0.6807,-0.6807,-0.6808,-0.6827,-0.6827,-0.6828,0,0,0,0,0,0,-0.6787,-0.6788,-0.6797,-0.6793,-0.6794,-0.6796,-0.6798,-0.6798,-0.68,-0.6802,-0.6802,-0.68,-0.6804,-0.6805,-0.6811,-0.6814,-0.6808,-0.6808,-0.6827,-0.6827,-0.6828,-0.6831,0,0,0,0,0,0,-0.6787,-0.6788,-0.679,-0.6793,-0.6795,-0.6802,-0.6798,-0.6799,-0.6801,-0.68,-0.6803,-0.6803,-0.6804,-0.681,-0.6811,-0.6815,-0.6808,-0.6826,-0.6827,-0.6827,-0.6831,-0.6832,-0.6833,0,0,0,0,0,-0.6787,-0.6791,-0.6791,-0.6792,-0.6797,-0.6802,-0.6803,-0.6803,-0.6801,-0.6803,-0.6805,-0.6803,-0.6814,-0.6811,-0.6812,-0.6816,-0.6826,-0.6827,-0.6827,-0.6831,-0.6832,-0.6833,0,0,0,0,0,0,-0.6788,-0.6791,-0.6791,-0.6796,-0.6799,-0.6802,-0.6805,-0.6804,-0.6807,-0.6807,-0.6807,-0.6808,-0.6814,-0.6816,-0.6812,-0.6823,-0.682,-0.6821,-0.6822,-0.6823,-0.6824,-0.6823,-0.6809,0,0,0,0,0,-0.6789,-0.6792,-0.6795,-0.68,-0.6801,-0.6803,-0.6805,-0.6805,-0.6808,-0.6809,-0.6811,-0.6814,-0.6818,-0.6821,-0.6825,-0.6832,-0.6833,-0.6835,-0.6836,-0.6837,-0.6837,-0.6842,-0.6844,-0.683,-0.683,-0.683,0,0,-0.6791,-0.6793,-0.6795,-0.68,-0.6802,-0.6806,-0.6804,-0.6808,-0.6811,-0.681,-0.6816,-0.6817,-0.6821,-0.6828,-0.6831,-0.6829,-0.6842,-0.6838,-0.6838,-0.6838,-0.6843,-0.6844,-0.6845,-0.683,-0.683,-0.683,0,0,-0.6796,-0.6798,-0.6802,-0.6805,-0.6809,-0.681,-0.6811,-0.6815,-0.6816,-0.6822,-0.6822,-0.6826,-0.6833,-0.6836,-0.6838,-0.6847,-0.6846,-0.6849,-0.6853,-0.6858,-0.6859,-0.686,-0.6863,-0.6864,-0.6849,-0.6849,-0.6849,0,-0.6798,-0.6804,-0.6805,-0.6809,-0.6812,-0.6812,-0.6817,-0.6819,-0.6824,-0.6826,-0.6825,-0.6834,-0.6837,-0.6845,-0.6847,-0.6849,-0.6851,-0.6847,-0.6858,-0.6859,-0.686,-0.6864,-0.6865,-0.6849,-0.6849,-0.6849,-0.6849,0,-0.6806,-0.681,-0.6813,-0.6819,-0.6822,-0.6826,-0.6829,-0.6832,-0.6833,-0.6835,-0.6842,-0.6845,-0.685,-0.6852,-0.6852,-0.6861,-0.686,-0.6858,-0.6855,-0.6862,-0.6865,-0.6866,-0.685,-0.685,-0.685,-0.685,0,0,-0.681,-0.6817,-0.6819,-0.6821,-0.6827,-0.683,-0.6836,-0.6841,-0.6844,-0.6848,-0.6853,-0.686,-0.6859,-0.6862,-0.6863,-0.6867,-0.6875,-0.6866,-0.6866,-0.6867,-0.6885,-0.6886,-0.6887,-0.6875,-0.6875,-0.6876,-0.6885,0,-0.6816,-0.6825,-0.6827,-0.6836,-0.684,-0.6841,-0.6846,-0.685,-0.6853,-0.6858,-0.6861,-0.6866,-0.6864,-0.6866,-0.687,-0.6873,-0.6879,-0.6873,-0.688,-0.688,-0.6878,-0.6889,-0.6889,-0.6898,-0.6886,-0.6887,-0.6887,0,-0.6823,-0.6828,-0.6837,-0.6843,-0.6845,-0.6849,-0.6855,-0.6859,-0.6865,-0.6866,-0.6871,-0.6872,-0.6878,-0.6875,-0.6885,-0.6881,-0.6884,-0.6887,-0.6887,-0.6887,-0.6883,-0.6889,-0.6901,-0.6902,-0.6889,-0.6888,-0.6888,0,-0.6826,-0.6835,-0.6841,-0.6844,-0.6851,-0.6854,-0.6857,-0.6862,-0.6866,-0.6872,-0.6874,-0.688,-0.6883,-0.6889,-0.6892,-0.6889,-0.6901,-0.6898,-0.6903,-0.6903,-0.6904,-0.6904,-0.6916,-0.6908,-0.6908,-0.6908,-0.6908,0,-0.6832,-0.6837,-0.6843,-0.6847,-0.6853,-0.6856,-0.6863,-0.6866,-0.6871,-0.6876,-0.6878,-0.6883,-0.6887,-0.6893,-0.6895,-0.6903,-0.6905,-0.6907,-0.6907,-0.6906,-0.6906,-0.6908,-0.6907,-0.6908,-0.6908,-0.6908,-0.6908,0,-0.6835,-0.6839,-0.6847,-0.6853,-0.6855,-0.686,-0.6866,-0.687,-0.6873,-0.688,-0.6882,-0.6887,-0.6894,-0.6898,-0.6907,-0.6909,-0.6918,-0.6918,-0.6916,-0.6916,-0.692,-0.692,-0.6933,-0.6936,-0.6926,-0.6926,-0.6926,0,-0.6839,-0.6843,-0.685,-0.6854,-0.6857,-0.6863,-0.6867,-0.6871,-0.6875,-0.6883,-0.6887,-0.6894,-0.69,-0.6911,-0.6916,-0.6923,-0.6924,-0.6928,-0.6924,-0.6924,-0.6924,-0.6923,-0.6924,-0.6928,-0.6928,-0.6928,-0.6928,0,-0.6844,-0.6846,-0.6852,-0.6859,-0.6864,-0.6869,-0.6874,-0.6878,-0.6883,-0.6888,-0.6895,-0.69,-0.6909,-0.6917,-0.6925,-0.6928,-0.6929,-0.693,-0.6931,-0.693,-0.6928,-0.6929,-0.6917,-0.6929,-0.6929,-0.6929,-0.6929,-0.6929,-0.6848,-0.6852,-0.6858,-0.6865,-0.6869,-0.6875,-0.688,-0.6884,-0.689,-0.6898,-0.6901,-0.6909,-0.6916,-0.6926,-0.6931,-0.6937,-0.6937,-0.6939,-0.6939,-0.6939,-0.694,-0.6928,-0.6939,-0.6939,-0.6939,-0.6939,-0.6939,0,-0.6853,-0.6858,-0.6864,-0.6872,-0.6877,-0.6879,-0.6885,-0.689,-0.6897,-0.6903,-0.6909,-0.6919,-0.6926,-0.6933,-0.6941,-0.6945,-0.6946,-0.6947,-0.6946,-0.6947,-0.694,-0.6938,-0.6946,-0.6946,-0.6946,-0.6946,-0.6946,-0.6946,-0.6857,-0.6864,-0.6867,-0.6878,-0.6882,-0.689,-0.6894,-0.6899,-0.6905,-0.6915,-0.6921,-0.6926,-0.6932,-0.6941,-0.6949,-0.695,-0.6953,-0.6954,-0.6956,-0.6949,-0.6948,-0.6947,-0.6945,-0.6955,-0.6955,-0.6963,-0.6963,-0.6963]},{"header":{"parameterUnit":"m.s-1","parameterCategory":1,"la1":30.2991,"la2":30.254,"lo1":-89.0895,"lo2":-89.0444,"dy":0.0017,"dx":0.0017,"nx":28,"ny":28,"refTime":"2025-05-18T21:00:00:Z","depth":0,"parameterNumber":3,"parameterNumberName":"V-component_of_WINDS"},"data":[0,0,0,0,0,0,0,0,0,0,0,0,0,0,0,0,0,0,0,0,0,0,0,0,0,0,0,0,0,0,0,0,0,0,0,0,0,0,0,0,0,0,0,0,0,0,0,0,0,0,0,0,0,0,0,0,0,0,4.0604,4.0605,0,4.0652,4.0653,4.0653,4.0643,4.0642,4.0642,4.0641,4.0689,4.0691,4.0693,0,0,0,0,0,0,0,0,0,0,0,0,0,4.0504,4.0506,4.0604,4.0605,4.0605,4.0652,4.0653,4.0653,4.0643,4.0642,4.0641,4.064,4.0688,4.069,4.0693,0,0,0,0,0,0,0,0,0,0,0,0,0,4.0549,4.0507,4.0604,4.0606,4.0607,4.0652,4.0653,4.0653,4.0644,4.0642,4.0641,4.064,4.0687,4.069,4.0693,4.0739,0,0,4.0703,4.0704,0,0,0,0,0,0,0,0,4.0547,4.0553,4.0605,4.0606,4.0607,4.064,4.0635,4.0682,4.0644,4.063,4.0641,4.0639,4.0674,4.0678,4.069,4.0741,4.0743,4.0703,4.0705,4.0706,4.0707,0,0,0,0,0,0,0,4.0544,4.0551,4.0623,4.0606,4.0607,4.0604,4.0609,4.0644,4.0658,4.0631,4.063,4.0636,4.0674,4.0687,4.0691,4.0744,4.0703,4.0706,4.0708,4.0709,4.0837,4.0838,0,0,0,0,0,0,4.054,4.0548,4.0622,4.0625,4.0573,4.0607,4.0613,4.0631,4.0658,4.0661,4.0637,4.0635,4.0682,4.0687,4.0692,4.0749,4.0706,4.0709,4.0711,4.0835,4.0837,4.0839,0,0,0,0,0,0,4.0538,4.0546,4.062,4.0586,4.0595,4.061,4.0631,4.0633,4.0645,4.0663,4.0665,4.0648,4.0681,4.0688,4.0728,4.0751,4.0711,4.0714,4.0833,4.0836,4.0838,4.0862,0,0,0,0,0,0,4.0535,4.0546,4.0563,4.0587,4.0597,4.0655,4.0632,4.0634,4.0651,4.0649,4.0673,4.0676,4.068,4.0723,4.0731,4.0754,4.0716,4.0832,4.0835,4.0837,4.086,4.0865,4.087,0,0,0,0,0,4.0531,4.0568,4.0564,4.0573,4.062,4.0656,4.0662,4.0667,4.0653,4.0671,4.0682,4.0675,4.0746,4.0727,4.0736,4.0761,4.083,4.0834,4.0837,4.0857,4.0864,4.087,0,0,0,0,0,0,4.0546,4.0571,4.0567,4.0612,4.0632,4.0654,4.0677,4.0673,4.0697,4.0695,4.0699,4.0705,4.0746,4.0757,4.0735,4.0807,4.0786,4.0792,4.0799,4.0805,4.081,4.0808,4.0719,0,0,0,0,0,4.0555,4.0582,4.0602,4.064,4.065,4.0662,4.0678,4.068,4.0701,4.0709,4.0723,4.0743,4.077,4.0788,4.0813,4.086,4.0866,4.0881,4.0886,4.0891,4.0896,4.0923,4.0931,4.085,4.085,4.085,0,0,4.0572,4.0589,4.0607,4.0643,4.0659,4.0688,4.0669,4.07,4.0722,4.0713,4.0753,4.0764,4.0786,4.0831,4.0851,4.0841,4.0919,4.0895,4.0898,4.0901,4.0927,4.0935,4.0942,4.0852,4.0852,4.0851,0,0,4.0621,4.0635,4.067,4.0686,4.071,4.0718,4.0726,4.0748,4.0756,4.0795,4.079,4.0815,4.0861,4.0878,4.0893,4.0948,4.0943,4.0956,4.0984,4.101,4.1017,4.1022,4.1044,4.1051,4.096,4.096,4.096,0,4.064,4.0684,4.0687,4.072,4.0737,4.073,4.0766,4.0781,4.0812,4.0824,4.0812,4.0871,4.0885,4.0934,4.0948,4.0959,4.0969,4.0954,4.1015,4.1021,4.1026,4.1047,4.1055,4.0962,4.0962,4.0962,4.0961,0,4.0707,4.0738,4.0762,4.0794,4.0813,4.0846,4.0855,4.0874,4.0874,4.0883,4.0924,4.0941,4.0971,4.0982,4.0982,4.1031,4.1025,4.1014,4.0994,4.1036,4.1055,4.1063,4.0964,4.0964,4.0963,4.0963,0,0,4.0767,4.0801,4.081,4.0825,4.0851,4.0874,4.0907,4.0937,4.0954,4.0975,4.1004,4.1043,4.1034,4.105,4.1052,4.1075,4.112,4.1062,4.1062,4.1074,4.1178,4.1187,4.1196,4.1116,4.1117,4.1118,4.1176,0,4.082,4.0879,4.0884,4.0937,4.0966,4.096,4.0989,4.1009,4.1018,4.1043,4.1052,4.1081,4.1066,4.1076,4.1098,4.111,4.1141,4.1105,4.1144,4.1145,4.1141,4.1206,4.1216,4.127,4.1184,4.1185,4.1186,0,4.0889,4.0914,4.0971,4.0994,4.1006,4.1032,4.1061,4.1085,4.1107,4.1111,4.113,4.1129,4.1163,4.114,4.1188,4.1164,4.1179,4.1187,4.1189,4.1195,4.117,4.1216,4.1287,4.1296,4.1198,4.1197,4.1196,0,4.093,4.0977,4.1018,4.103,4.1058,4.1077,4.1089,4.1109,4.1127,4.1151,4.1163,4.1191,4.1207,4.1228,4.1234,4.1216,4.1283,4.126,4.1289,4.1289,4.1305,4.1304,4.1382,4.1311,4.1311,4.1311,4.1311,0,4.099,4.1025,4.1037,4.1062,4.1102,4.1106,4.1146,4.1157,4.1175,4.1202,4.1198,4.1224,4.1229,4.1256,4.1261,4.1301,4.1307,4.1313,4.1314,4.1315,4.1315,4.1327,4.1324,4.1313,4.1312,4.1312,4.1312,0,4.1043,4.1052,4.1097,4.1119,4.1126,4.1155,4.1174,4.1198,4.1206,4.1241,4.1249,4.1262,4.1294,4.1302,4.1339,4.1342,4.139,4.1386,4.1383,4.1384,4.1414,4.1412,4.1505,4.1518,4.1435,4.1436,4.1437,0,4.1082,4.111,4.1135,4.1154,4.1167,4.1197,4.1215,4.122,4.124,4.1267,4.1288,4.1319,4.1345,4.1395,4.1408,4.1437,4.1435,4.1466,4.144,4.144,4.1439,4.1438,4.1442,4.1472,4.1472,4.1473,4.1474,0,4.115,4.1154,4.1181,4.1211,4.1233,4.1256,4.1278,4.1293,4.1301,4.1323,4.1356,4.1375,4.1414,4.1445,4.1474,4.1487,4.1482,4.1481,4.149,4.1492,4.1491,4.1494,4.14,4.148,4.1479,4.1479,4.1478,4.1478,4.12,4.1224,4.1247,4.1278,4.1295,4.1316,4.1341,4.1352,4.1379,4.1412,4.1412,4.1448,4.147,4.1508,4.1522,4.1551,4.1542,4.1553,4.1557,4.1561,4.1565,4.1484,4.1556,4.1555,4.1555,4.1555,4.1555,0,4.127,4.1284,4.1313,4.1344,4.1369,4.1362,4.1386,4.1407,4.1439,4.1459,4.1484,4.1522,4.1553,4.1568,4.1598,4.1618,4.1617,4.1626,4.1626,4.1629,4.157,4.156,4.1626,4.1626,4.1626,4.1626,4.1626,4.1626,4.131,4.1352,4.1358,4.1409,4.1423,4.1459,4.1474,4.1493,4.1509,4.1552,4.1578,4.1587,4.1606,4.1638,4.1666,4.1669,4.1681,4.1692,4.1695,4.164,4.1633,4.1626,4.1618,4.1694,4.1695,4.1752,4.1753,4.1753]}]]